Simultaneous Nadir Overpasses (SNOs) Predictions

Prediction of SNOs between NOAA-20 and LANDSAT-8 Satellite Orbit:

Table of predicted SNOs for the next 14.0 days since TLE Epoch: 5/4/2024
Index Date (NOAA-20) Time (NOAA-20) Lat,Lon (NOAA-20) SZA (NOAA-20 ) Date (LANDSAT-8) Time (LANDSAT-8) Lat,Lon (LANDSAT-8) SZA (LANDSAT-8 ) Distance(km) Time Diff (sec)
1 05/05/2024 21:21:57 -70.24, 35.72 126.43 05/05/2024 21:22:55 -70.24, 35.64 126.43 3.08 58
2 05/05/2024 22:12:41 70.14,-156.82 53.47 05/05/2024 22:12:22 70.14,-156.86 53.47 1.40 19
3 05/05/2024 23:03:11 -69.40, 11.58 127.31 05/05/2024 23:02:02 -69.48, 9.86 127.19 68.00 69
4 05/08/2024 13:38:48 -70.23, 151.51 127.17 05/08/2024 13:39:23 -70.24, 151.51 127.16 1.13 35
5 05/08/2024 14:29:32 70.14, -41.04 52.73 05/08/2024 14:28:50 70.14, -40.99 52.73 1.91 42
6 05/11/2024 05:05:05 70.77, 99.12 52.70 05/11/2024 05:06:15 70.66, 100.37 52.56 47.59 70
7 05/11/2024 05:55:38 -70.18, -92.64 127.91 05/11/2024 05:55:52 -70.17, -92.72 127.93 3.43 14
8 05/11/2024 06:46:22 70.09, 74.81 51.99 05/11/2024 06:45:18 70.11, 74.85 52.01 2.66 64
9 05/13/2024 21:21:46 70.31,-144.36 51.56 05/13/2024 21:22:48 70.29,-144.29 51.54 3.39 62
10 05/13/2024 22:12:28 -70.20, 23.12 128.56 05/13/2024 22:12:18 -70.19, 23.19 128.58 2.76 10
11 05/13/2024 23:03:03 69.63,-168.72 50.85 05/13/2024 23:01:52 69.69,-169.86 50.93 44.65 71
12 05/16/2024 13:38:35 70.23, -28.45 50.85 05/16/2024 13:39:16 70.23, -28.50 50.86 1.76 41
13 05/16/2024 14:29:17 -70.11, 139.04 129.27 05/16/2024 14:28:46 -70.13, 138.99 129.26 2.52 31



Historial Predications of SNOs between NOAA-20 and LANDSAT-8
